Change the Weather History Date:

Sunday, April 20, 2014

  Actual Average Record
Temperature  
Mean Temperature 56 °F -  
Max Temperature 77 °F 64 °F 85 °F (1985)
Min Temperature 37 °F 41 °F 17 °F (1969)
Degree Days  
Heating Degree Days 9    
Growing Degree Days 6 (Base 50)    
Moisture  
Dew Point 35 °F    
Average Humidity 51    
Maximum Humidity 79    
Minimum Humidity 20    
Precipitation  
Precipitation 0.00 in - - ()
Sea Level Pressure  
Sea Level Pressure 30.22 in    
Wind  
Wind Speed 4 mph (ESE)    
Max Wind Speed 9 mph    
Max Gust Speed 20 mph    
Visibility 10 miles    
Events      
Averages and records for this station are not official NWS values.
T = Trace of Precipitation, MM = Missing Value Source: NWS Daily Summary

Daily Weather History Graph

Daily Weather History Graph

Search for Another Location

Airport or City:

Trip Planner

Search our weather history database for the weather conditions in past years. The results will help you decide how hot, cold, wet, or windy it might be!

Date:

Astronomy

Apr. 20, 2014 Rise Set
Actual Time 6:45 AM EDT 8:13 PM EDT
Civil Twilight 6:17 AM EDT 8:42 PM EDT
Nautical Twilight 5:43 AM EDT 9:16 PM EDT
Astronomical Twilight 5:07 AM EDT 9:52 PM EDT
Moon 12:52 AM EDT (4/20) 11:05 AM EDT (4/20)
Length of Visible Light 14h 24m
Length of Day
13h 28m
Waning Gibbous, 69% of the Moon is Illuminated
Apr 20
Waning Gibbous
Apr 22
Last Quarter
Apr 29
New
May 6
First Quarter
May 14
Full

Hourly Weather History & Observations

Time (EDT) Temp. Windchill Dew Point Humidity Pressure Visibility Wind Dir Wind Speed Gust Speed Precip Events Conditions
12:53 AM 46.9 °F - 30.9 °F 54% 30.28 in 10.0 mi NNE 3.5 mph - N/A   Clear
1:53 AM 39.9 °F 37.8 °F 33.1 °F 77% 30.28 in 10.0 mi WNW 3.5 mph - N/A   Clear
2:53 AM 42.1 °F 40.2 °F 33.1 °F 70% 30.26 in 10.0 mi NNW 3.5 mph - N/A   Clear
3:53 AM 41.0 °F 39.0 °F 32.0 °F 70% 30.26 in 10.0 mi North 3.5 mph - N/A   Clear
4:53 AM 41.0 °F 38.0 °F 33.1 °F 73% 30.27 in 10.0 mi NW 4.6 mph - N/A   Clear
5:53 AM 39.9 °F 37.8 °F 32.0 °F 73% 30.28 in 10.0 mi North 3.5 mph - N/A   Clear
6:53 AM 37.9 °F - 32.0 °F 79% 30.30 in 10.0 mi Calm Calm - N/A   Clear
7:53 AM 44.1 °F - 34.0 °F 68% 30.31 in 10.0 mi Calm Calm - N/A   Clear
8:53 AM 48.9 °F - 35.1 °F 59% 30.30 in 10.0 mi South 4.6 mph - N/A   Clear
9:53 AM 55.9 °F - 36.0 °F 47% 30.30 in 10.0 mi SE 8.1 mph - N/A   Clear
10:53 AM 63.0 °F - 37.9 °F 40% 30.28 in 10.0 mi SE 9.2 mph - N/A   Clear
11:53 AM 66.9 °F - 39.0 °F 36% 30.27 in 10.0 mi SSW 4.6 mph - N/A   Clear
12:53 PM 70.0 °F - 39.9 °F 33% 30.25 in 10.0 mi ESE 9.2 mph - N/A   Clear
1:53 PM 72.0 °F - 41.0 °F 33% 30.23 in 10.0 mi SE 9.2 mph 19.6 mph N/A   Clear
2:53 PM 72.0 °F - 37.9 °F 29% 30.21 in 10.0 mi ESE 6.9 mph - N/A   Clear
3:53 PM 75.0 °F - 37.0 °F 25% 30.18 in 10.0 mi ESE 6.9 mph - N/A   Clear
4:53 PM 75.0 °F - 30.9 °F 20% 30.17 in 10.0 mi Calm Calm - N/A   Clear
5:53 PM 75.0 °F - 33.1 °F 22% 30.15 in 10.0 mi ESE 8.1 mph - N/A   Clear
6:53 PM 73.9 °F - 30.9 °F 21% 30.14 in 10.0 mi SE 8.1 mph - N/A   Clear
7:53 PM 68.0 °F - 30.9 °F 25% 30.13 in 10.0 mi Calm Calm - N/A   Clear
8:53 PM 57.0 °F - 39.0 °F 51% 30.14 in 10.0 mi Calm Calm - N/A   Clear
9:53 PM 53.1 °F - 42.1 °F 66% 30.15 in 10.0 mi Calm Calm - N/A   Clear
10:53 PM 51.1 °F - 41.0 °F 68% 30.14 in 10.0 mi Calm Calm - N/A   Clear
11:53 PM 46.9 °F - 39.9 °F 77% 30.12 in 10.0 mi Calm Calm - N/A   Clear